Showing default

OPS 9341 (IDSCS 19), 3284

Orbit data source: Space-Track

OPS 9341 (IDSCS 19), 3284 is a payload satellite owned by SAMSO (US) in GEO that was launched on Thu, 13 Jun 1968 UTC via a TITAN IIIC launch vehicle from the Air Force Eastern Test Range (AFETR). Payload-class satellites include a variety of spacecraft equipped with specific instruments for various scientific and technological missions. These include communications satellites like Starlink; space stations such as the ISS; scientific satellites like the Hubble; Earth observation satellites from companies like Planet Labs, Umbra, and HawkEye 360; GPS; miniature CubeSats for education and research; and military/defense satellites.

Loading next visibility...
Identifier
3284, 1968-050A
Orbit
GEO
Country
Flag of USUS
Related business
Manufacturer
Philco-Ford
Mission
Non-operational spacecraft
Bus & Motor
IDCSP, Unknown motor
Mass
45 kg wet, 45 kg dry
Launch date (UTC)
1968-06-13 (58 years ago)
Launch vehicle
TITAN IIIC
Launch site
Air Force Eastern Test Range (AFETR)
Object type
Payload
Rocket body
Debris
Shape & HBR
Unknown
Radar Cross Section
Medium (>0.1 m² and <1 m²)

Expand to show TLE details & history
Last TLE update: 11 hours ago

TLE from 11 hours ago
0 OPS 9341 (IDSCS 19)
1 03284U 68050A   26175.10392096 -.00000097  00000-0  00000-0 0  9994
2 03284   7.2253  51.6205 0013288 152.6487  40.7803  1.07854531 50283
Epoch: 2026-06-24T02:29Z
TLE epoch observation values (Epoch: 2026-06-24T02:29:38.770Z)
Latitude
-1.70324°
Longitude
-64.6201°
Altitude
33,745.752 km
Speed
3.154 km/s
True Right ascension
16h 20m 13s
True Declination
-1° 42' 05"
Sunlit
Object was in daylight at epoch
Visualization orbit readout
Latitude
Unknown
Longitude
Unknown
Altitude
Unknown
Speed
Unknown
Apparent Right ascension
Unknown
Apparent Declination
Unknown
Sunlit
N/A
Visualization observer readout
Local Sidereal Time
00:46:45
Azimuth
Unknown
Elevation
Unknown
Doppler factor
Unknown
Orbital elements
Apogee altitude
33,840.881 km
Perigee altitude
33,734.137 km
Semi-major axis
40,165.646 km
Eccentricity
0.00133
Inclination
7.2253°
RAAN
51.6205°
Arg. of periapsis
152.6487°
True anomaly
40.87988°
Mean anomaly
40.7803°
Eccentric anomaly
40.83008°
Mean motion
0.26963 °/min
Orbital period
1,335.19 mins
BSTAR
0
Loading maneuver chart data...
Computing Atmospheric mass density...
Loading historical data...
Loading historical data...
Loading historical data...
Loading historical data...
Loading historical data...
Loading historical data...
Loading historical data...

Documentation

Showing up to 5 results
|